Regional Weather Roundup
Issued by NWS

Home | Current Version | Previous Version | Text Only | Print | Product List | Glossary Off
Versions: 1 2 3 4 5 6 7 8 9 10 11 12 13 14 15 16 17 18 19 20 21 22 23 24 25 26 27 28 29 30 31 32 33 34 35 36 37 38 39 40 41 42 43 44 45 46 47 48 49 50

000
ASUS43 KLOT 311908
RWRIL

ILLINOIS REGIONAL WEATHER ROUNDUP
NATIONAL WEATHER SERVICE CHICAGO/ROMEOVILLE IL
200 PM CDT FRI JUL 31 2015

NOTE: "FAIR" INDICATES FEW OR NO CLOUDS BELOW 12,000 FEET WITH NO
SIGNIFICANT WEATHER AND/OR OBSTRUCTIONS TO VISIBILITY.

* THESE STATIONS ARE NOT UNDER NWS QUALITY CONTROL. THEY ALSO MAY NOT
  REPORT WEATHER SUCH AS PRECIPITATION OR FOG.

ILZ001-002-007-009-015-016-024-312000-
NORTHWEST ILLINOIS

CITY           SKY/WX    TMP DP  RH WIND       PRES   REMARKS
MOLINE         SUNNY     88  56  33 NW15      30.04F HX  86
STERLING*      SUNNY     86  59  39 NW16G25   29.99F HX  85
SAVANNA*       SUNNY     85  55  35 NW13G20   30.02S HX  84
$$

ILZ003-004-008-010-011-017-018-312000-
NORTH CENTRAL ILLINOIS

CITY           SKY/WX    TMP DP  RH WIND       PRES   REMARKS
ROCKFORD       MOSUNNY   85  52  32 NW20G25   30.01F HX  83
FREEPORT*      SUNNY     83  54  37 W20G25    30.03S HX  82
ROCHELLE*      SUNNY     84  58  40 NW18G24   30.01F HX  83
DE KALB*       SUNNY     83  56  39 NW22G30   30.01S HX  83
PERU*          SUNNY     85  53  34 NW17G24   30.03S HX  83
$$

ILZ005-006-012>014-019>023-312000-
NORTHEAST ILLINOIS

CITY           SKY/WX    TMP DP  RH WIND       PRES   REMARKS
CHICAGO-OHARE  MOSUNNY   86  52  30 W17G31    29.96F HX  84
CHICAGO-MIDWAY MOSUNNY   89  50  26 W16G33    29.96F HX  86
AURORA         SUNNY     85  56  37 W20G28    29.99F HX  84
LANSING*       SUNNY     87  52  29 NW15G24   29.97S HX  85
JOLIET*        SUNNY     87  56  35 W12G22    29.99F HX  86
WAUKEGAN       MOSUNNY   83  53  35 W10G21    29.95S HX  82
DUPAGE AIRPORT MOSUNNY   85  53  33 NW21G30   29.98F HX  83
KANKAKEE*      MOSUNNY   86  60  41 W13G22    30.00F HX  86
WHEELING       MOSUNNY   85  52  32 NW18G30   29.97F HX  83
MORRIS*        SUNNY     85  61  44 W20       29.99F HX  85
ROMEOVILLE*    SUNNY     85  52  31 NW18G29   29.99F HX  83
NORTHERLY ISL    N/A     85  46  25 NW21        N/A  HX  82
$$

LMZ740>746-312000-
SOUTHERN LAKE MICHIGAN

STATION/POSITION SKY/WX   TEMP    WIND        PRES    VSBY  WAVE
                          AIR SEA DIR/SP/G                  HT/PER
                          (F)     (DEG/KT/KT) (MB)    (MI)  (FT/S)
HARRISON CRIB              82     280/ 20/ 30   N/A
BURNHAM HARBOR             85     290/ 15/ 21   N/A
CALUMET HARBOR             87     290/  7/ 12   N/A
BURNS HARBOR               76      10/  3/  5 1015.2F
MICHIGAN CITY              77     240/  7/  8   N/A
MICHIGAN CITY 6N           77 76  290/  4/  4   N/A           1/ 3
ST. JOSEPH                 75 74  290/  8/  8   N/A           2/ 3
$$

ILZ025>027-034>036-040-047-049-050-058-095>099-312000-
WEST-CENTRAL ILLINOIS

CITY           SKY/WX    TMP DP  RH WIND       PRES   REMARKS
QUINCY         SUNNY     87  65  47 NW8       30.09F HX  89
GALESBURG*     SUNNY     85  63  46 W9        30.06F HX  86
MACOMB*        SUNNY     86  66  51 NW7       30.09F HX  88
JACKSONVILLE*  SUNNY     88  68  50 NW9       30.07F HX  92
PITTSFIELD*    SUNNY     88  65  46 NW3       30.10F HX  89
$$

ILZ028>032-037-038-041>044-048-051>054-059>061-312000-
CENTRAL ILLINOIS

CITY           SKY/WX    TMP DP  RH WIND       PRES   REMARKS
PONTIAC        SUNNY     84  63  49 NW13G22   30.03F HX  85
BLOOMINGTON    SUNNY     88  59  37 NW20G28   30.06F HX  87
DECATUR        SUNNY     89  66  46 NW15      30.06F HX  91
PEORIA         SUNNY     89  61  38 NW9       30.05F HX  89
LACON*         SUNNY     85  62  45 NW9       30.03S HX  86
LINCOLN*       SUNNY     91  64  41 NW8       30.04F HX  92
SPRINGFIELD    SUNNY     89  69  51 NW14      30.06F HX  93
TAYLORVILLE    MOSUNNY   86  66  51 NW7G16    30.06F HX  88
$$

ILZ033-039-045-046-055>057-062-063-312000-
EAST-CENTRAL ILLINOIS

CITY           SKY/WX    TMP DP  RH WIND       PRES   REMARKS
CHAMPAIGN      MOSUNNY   86  69  56 W12       30.04F HX  90
DANVILLE*      MOSUNNY   85  68  55 W12G22    30.00F HX  88
RANTOUL*       MOSUNNY  N/A N/A N/A W17G25    30.03F
MATTOON        MOSUNNY   88  64  44 NW15      30.05F HX  89
PARIS*         SUNNY     87  66  50 W17G23    30.04F HX  89
$$

ILZ079-100>102-312000-
SOUTHWEST ILLINOIS

CITY           SKY/WX    TMP DP  RH WIND       PRES   REMARKS
ALTON          MOSUNNY   86  66  51 N8        30.08F HX  88
BELLEVILLE     SUNNY     89  70  52 VRB5      30.06F HX  94
CAHOKIA*       SUNNY     93  62  35 NW7       30.07F HX  93
SPARTA*        SUNNY     88  66  47 NW6       30.09F HX  90
$$

ILZ064>066-069>071-074>076-080>082-084>086-088>090-092>094-312000-
SOUTH-CENTRAL ILLINOIS

CITY           SKY/WX    TMP DP  RH WIND       PRES   REMARKS
CARBONDALE     SUNNY     88  66  48 NW5       30.08F HX  90
CAIRO*         SUNNY     87  69  55 N7        30.07F HX  91
EFFINGHAM*     MOSUNNY   89  60  38 W8        30.07F HX  88
MARION         MOSUNNY   90  66  45 NW8       30.08F HX  92
CENTRALIA*     SUNNY     88  63  43 NW8       30.07F HX  88
SALEM*         SUNNY     88  66  47 N7        30.08F HX  90
METROPOLIS*    SUNNY     87  69  54 N7        30.07F HX  90
$$

ILZ067-068-072-073-078-083-087-091-312000-
SOUTHEAST ILLINOIS

CITY           SKY/WX    TMP DP  RH WIND       PRES   REMARKS
LAWRENCEVILLE  SUNNY     89  65  44 W9        30.05F HX  91
FLORA*         SUNNY     88  64  45 N5        30.06F HX  89
FAIRFIELD*     SUNNY     87  66  50 NW6       30.06F HX  89
HARRISBURG*    SUNNY     87  65  47 N5        30.08F HX  89
ROBINSON*      SUNNY     87  66  50 NW5       30.05F HX  89
CARMI*         MOSUNNY   87  63  44 NW8       30.06F HX  87
$$

ABBREVIATIONS USED IN REMARKS
   TC - TEMPERATURE IN CELSIUS
  WCI - WIND CHILL INDEX
   HX - HEAT INDEX
  VSB - VISIBILITY
$$



USA.gov is the U.S. government's official web portal to all federal, state and local government web resources and services.